• In United Kingdom
  • List of Countries
  • For 7 days
  • Water Temperature
  • Satellite Maps
  • Weather Map
  • Weather Widgets
  • user-avatar
    Login

    Hourly Weather Guadalajara

    Today, 22 September, Friday

    Time Temperature Precipitation Wind Pressure Humidity
    00:00 +18°C° 0.2 mm 0 mps 631 mmHg 88%
    01:00 +18°C° 0.2 mm 0 mps 631 mmHg 89%
    02:00 +17°C° 0.2 mm 0 mps 631 mmHg 90%
    03:00 +17°C° 0 mm 0 mps 631 mmHg 91%
    04:00 +17°C° 0 mm 0 mps 631 mmHg 91%
    05:00 +18°C° 0 mm 2 mps 631 mmHg 93%
    06:00 +19°C° 0.1 mm 2 mps 631 mmHg 89%
    07:00 +21°C° 0.1 mm 1 mps 632 mmHg 85%
    08:00 +22°C° 0.1 mm 1 mps 632 mmHg 82%
    09:00 +23°C° 0.6 mm 1 mps 632 mmHg 78%
    10:00 +24°C° 0.6 mm 2 mps 632 mmHg 75%
    11:00 +26°C° 0.6 mm 2 mps 633 mmHg 71%
    12:00 +25°C° 1.5 mm 1 mps 632 mmHg 73%
    13:00 +25°C° 1.5 mm 1 mps 631 mmHg 74%
    14:00 +25°C° 1.5 mm 1 mps 631 mmHg 76%
    15:00 +24°C° 1.2 mm 1 mps 630 mmHg 79%
    16:00 +24°C° 1.2 mm 1 mps 630 mmHg 83%
    17:00 +21°C° 1.2 mm 0 mps 630 mmHg 86%
    18:00 +20°C° 0.5 mm 0 mps 630 mmHg 87%
    19:00 +19°C° 0.5 mm 0 mps 630 mmHg 89%
    20:00 +18°C° 0.5 mm 0 mps 630 mmHg 90%
    21:00 +18°C° 0.2 mm 0 mps 630 mmHg 91%
    22:00 +20°C° 0.2 mm 1 mps 631 mmHg 92%
    23:00 +19°C° 0.2 mm 1 mps 631 mmHg 93%

    Tomorrow, 23 September, Saturday

    Time Temperature Precipitation Wind Pressure Humidity
    00:00 +19°C° 0.2 mm 1 mps 630 mmHg 93%
    01:00 +19°C° 0.2 mm 1 mps 630 mmHg 94%
    02:00 +18°C° 0.2 mm 1 mps 630 mmHg 95%
    03:00 +18°C° 0.1 mm 1 mps 629 mmHg 95%
    04:00 +18°C° 0.1 mm 1 mps 629 mmHg 95%
    05:00 +18°C° 0.1 mm 1 mps 629 mmHg 95%
    06:00 +19°C° 0 mm 1 mps 630 mmHg 92%
    07:00 +20°C° 0 mm 1 mps 630 mmHg 88%
    08:00 +21°C° 0 mm 1 mps 631 mmHg 85%
    09:00 +23°C° 0.2 mm 1 mps 631 mmHg 77%
    10:00 +25°C° 0.2 mm 2 mps 632 mmHg 68%
    11:00 +27°C° 0.2 mm 2 mps 632 mmHg 59%
    12:00 +27°C° 0.7 mm 2 mps 632 mmHg 61%
    13:00 +27°C° 0.7 mm 2 mps 631 mmHg 63%
    14:00 +26°C° 0.7 mm 2 mps 630 mmHg 64%
    15:00 +25°C° 0.9 mm 2 mps 630 mmHg 70%
    16:00 +24°C° 0.9 mm 2 mps 629 mmHg 77%
    17:00 +23°C° 0.9 mm 2 mps 629 mmHg 83%
    18:00 +22°C° 0.3 mm 1 mps 629 mmHg 86%
    19:00 +21°C° 0.3 mm 1 mps 630 mmHg 89%
    20:00 +20°C° 0.3 mm 1 mps 630 mmHg 92%
    21:00 +19°C° 0 mm 1 mps 630 mmHg 93%
    22:00 +19°C° 0 mm 1 mps 630 mmHg 94%
    23:00 +19°C° 0 mm 1 mps 630 mmHg 94%

    Day after tomorrow, 24 September, Sunday

    Time Temperature Precipitation Wind Pressure Humidity
    00:00 +19°C° 0 mm 1 mps 630 mmHg 95%
    01:00 +18°C° 0 mm 1 mps 629 mmHg 95%
    02:00 +18°C° 0 mm 1 mps 629 mmHg 96%
    03:00 +18°C° 0 mm 1 mps 629 mmHg 96%
    04:00 +18°C° 0 mm 1 mps 629 mmHg 96%
    05:00 +18°C° 0 mm 1 mps 629 mmHg 97%
    06:00 +19°C° 0 mm 1 mps 629 mmHg 93%
    07:00 +20°C° 0 mm 1 mps 630 mmHg 89%
    08:00 +21°C° 0 mm 1 mps 631 mmHg 85%
    09:00 +23°C° 0.1 mm 1 mps 632 mmHg 74%
    10:00 +26°C° 0.1 mm 1 mps 632 mmHg 63%
    11:00 +28°C° 0.1 mm 2 mps 633 mmHg 52%
    12:00 +28°C° 0 mm 2 mps 632 mmHg 51%
    13:00 +28°C° 0 mm 2 mps 632 mmHg 49%
    14:00 +28°C° 0 mm 2 mps 631 mmHg 48%
    15:00 +27°C° 0.1 mm 2 mps 630 mmHg 55%
    16:00 +25°C° 0.1 mm 2 mps 630 mmHg 62%
    17:00 +24°C° 0.1 mm 2 mps 629 mmHg 70%
    18:00 +23°C° 0 mm 1 mps 630 mmHg 76%
    19:00 +21°C° 0 mm 1 mps 630 mmHg 82%
    20:00 +20°C° 0 mm 1 mps 630 mmHg 88%
    21:00 +19°C° 0 mm 1 mps 630 mmHg 90%
    22:00 +19°C° 0 mm 1 mps 630 mmHg 92%
    23:00 +18°C° 0 mm 1 mps 630 mmHg 95%

    25 September, Monday

    Time Temperature Precipitation Wind Pressure Humidity
    00:00 +18°C° 0 mm 1 mps 630 mmHg 95%
    01:00 +16°C° 0 mm 0 mps 629 mmHg 96%
    02:00 +16°C° 0 mm 0 mps 629 mmHg 97%
    03:00 +16°C° 0 mm 0 mps 629 mmHg 96%
    04:00 +15°C° 0 mm 0 mps 629 mmHg 96%
    05:00 +15°C° 0 mm 0 mps 629 mmHg 96%
    06:00 +19°C° 0 mm 1 mps 630 mmHg 90%
    07:00 +20°C° 0 mm 1 mps 631 mmHg 84%
    08:00 +22°C° 0 mm 1 mps 632 mmHg 78%
    09:00 +24°C° 0 mm 1 mps 632 mmHg 70%
    10:00 +25°C° 0 mm 1 mps 632 mmHg 63%
    11:00 +27°C° 0 mm 1 mps 633 mmHg 55%
    12:00 +28°C° 0 mm 2 mps 632 mmHg 53%
    13:00 +28°C° 0 mm 2 mps 631 mmHg 50%
    14:00 +28°C° 0 mm 2 mps 631 mmHg 48%
    15:00 +27°C° 0 mm 2 mps 630 mmHg 52%
    16:00 +26°C° 0 mm 2 mps 630 mmHg 57%
    17:00 +25°C° 0 mm 2 mps 630 mmHg 62%
    18:00 +23°C° 0 mm 2 mps 630 mmHg 68%
    19:00 +22°C° 0 mm 1 mps 630 mmHg 75%
    20:00 +20°C° 0 mm 1 mps 630 mmHg 82%
    21:00 +19°C° 0 mm 1 mps 630 mmHg 85%
    22:00 +19°C° 0 mm 1 mps 630 mmHg 88%
    23:00 +18°C° 0 mm 1 mps 630 mmHg 91%

    26 September, Tuesday

    Time Temperature Precipitation Wind Pressure Humidity
    00:00 +16°C° 0 mm 0 mps 629 mmHg 92%
    01:00 +15°C° 0 mm 0 mps 629 mmHg 93%
    02:00 +15°C° 0 mm 0 mps 628 mmHg 94%
    03:00 +15°C° 0 mm 0 mps 628 mmHg 93%
    04:00 +15°C° 0 mm 0 mps 628 mmHg 93%
    05:00 +14°C° 0 mm 0 mps 628 mmHg 92%
    06:00 +18°C° 0 mm 1 mps 629 mmHg 84%
    07:00 +20°C° 0 mm 1 mps 630 mmHg 77%
    08:00 +22°C° 0 mm 1 mps 631 mmHg 69%
    09:00 +25°C° 0 mm 1 mps 632 mmHg 61%
    10:00 +27°C° 0 mm 1 mps 632 mmHg 52%
    11:00 +29°C° 0 mm 1 mps 632 mmHg 44%
    12:00 +30°C° 0 mm 1 mps 632 mmHg 42%
    13:00 +30°C° 0 mm 2 mps 631 mmHg 39%
    14:00 +31°C° 0 mm 2 mps 631 mmHg 37%
    15:00 +30°C° 0 mm 2 mps 630 mmHg 41%
    16:00 +28°C° 0 mm 2 mps 630 mmHg 46%
    17:00 +27°C° 0 mm 2 mps 630 mmHg 50%
    18:00 +25°C° 0 mm 2 mps 630 mmHg 57%
    19:00 +23°C° 0 mm 1 mps 630 mmHg 64%
    20:00 +21°C° 0 mm 1 mps 630 mmHg 71%
    21:00 +20°C° 0.1 mm 1 mps 630 mmHg 75%
    22:00 +20°C° 0.1 mm 1 mps 630 mmHg 80%
    23:00 +19°C° 0.1 mm 1 mps 630 mmHg 84%

    27 September, Wednesday

    Time Temperature Precipitation Wind Pressure Humidity
    00:00 +19°C° 0.1 mm 1 mps 630 mmHg 85%
    01:00 +17°C° 0.1 mm 0 mps 629 mmHg 86%
    02:00 +17°C° 0.1 mm 0 mps 629 mmHg 87%
    03:00 +16°C° 0 mm 0 mps 629 mmHg 88%
    04:00 +16°C° 0 mm 0 mps 629 mmHg 89%
    05:00 +16°C° 0 mm 0 mps 629 mmHg 89%
    06:00 +18°C° 0 mm 0 mps 630 mmHg 83%
    07:00 +19°C° 0 mm 0 mps 630 mmHg 76%
    08:00 +21°C° 0 mm 0 mps 631 mmHg 70%
    09:00 +26°C° 0 mm 1 mps 632 mmHg 62%
    10:00 +28°C° 0 mm 1 mps 632 mmHg 54%
    11:00 +31°C° 0 mm 1 mps 633 mmHg 46%
    12:00 +31°C° 0.4 mm 1 mps 632 mmHg 47%
    13:00 +31°C° 0.4 mm 1 mps 631 mmHg 47%
    14:00 +29°C° 0.4 mm 0 mps 630 mmHg 48%
    15:00 +27°C° 0.3 mm 0 mps 630 mmHg 53%
    16:00 +26°C° 0.3 mm 0 mps 630 mmHg 58%
    17:00 +24°C° 0.3 mm 0 mps 629 mmHg 64%
    18:00 +22°C° 0.3 mm 0 mps 629 mmHg 71%
    19:00 +22°C° 0.3 mm 1 mps 629 mmHg 78%
    20:00 +21°C° 0.3 mm 1 mps 629 mmHg 86%
    21:00 +20°C° 0.2 mm 1 mps 629 mmHg 88%
    22:00 +20°C° 0.2 mm 1 mps 629 mmHg 90%
    23:00 +17°C° 0.2 mm 0 mps 629 mmHg 92%
    Show more